Location: Proctor
(47.8934°N, 114.3048°W)
Time: 12:15:33
(UTC+00:00)

AO-91 - Pass Details

Date: 01 July 2022
Orbit: 450 x 797 km, 97.7° (Epoch: 11 August)

Event Time Altitude Azimuth Distance (km) Brightness Sun altitude
Rises 05:44:46 0° 25° (NNE) 2,533 ? -14.3°
Reaches altitude 10° 05:47:10 10° 40° (NE) 1,620 ? -14.5°
Maximum altitude 05:49:57 23° 95° (E) 1,026 ? -14.7°
Enters shadow 05:50:31 22° 111° (ESE) 1,055 ? -14.8°
